Погода в Святогорске

Украина / Донецкая область     49°02′12″N   37°33′40″E
темп.,
°C
ветер,
м/с
пор.,
м/с
влажн.,
%
обл.,
%
осадки,
мм/ч
давл.,
гПа
погр.,
м
11 мая, вт
вт1100:00+9с81693100 2.6 1012993
03:00+9ссв61296100 3.3 1012796
06:00+9с3898100 2.8 1011636
09:00+8всв51092100 3.5 1013748
12:00+11всв91164100 0.1 10141587
15:00+10св81271100 0.4 10141346
18:00+9св91377100 0.4 10141286
21:00+7св71293100 1.1 1014719
12 мая, ср
ср1200:00+7в61192100 0.1 1015651
03:00+7в71193100 0.3 10161156
06:00+6в71391100 0.8 1017692
09:00+7в6119197 0.8 1017776
12:00+10вюв7108490 0.6 10161139
15:00+13юв71068100 1.1 10151561
18:00+12ююв8117614 1.9 1015990
21:00+9юв4128890 3.0 1015497
13 мая, чт
чт1300:00+7юв2294100 0.1 101534
03:00+9юв2296100 0.3 101535
06:00+10в2292100 0.1 101563
09:00+15ююв237724 0.1 1015520
12:00+19ю465981 0.1 10141607
15:00+20ююз1361100 0.1 1014576
18:00+19ссв3571100 0.0 1013154
21:00+16в3278100 0.0 101426
14 мая, пт
пт1400:00+15вюв228412 0.0 101323
03:00+14в349153 0.0 101365
06:00+14вюв399243 0.0 1012194
09:00+21юв696991 0.0 1012636
12:00+25юв5853100 0.0 10111123
15:00+27юв5852100 0.0 10101327
18:00+26ююв476112 0.0 1009343
21:00+19ююв338131 0.0 101037
15 мая, сб
сб1500:00+17ю338963 0.3 101038
03:00+15юз2288100 0.5 101024
06:00+16зюз2283100 0.0 101135
09:00+20юз45641 0.0 1012560
12:00+23зюз45521 0.0 10131311
15:00+24юз454696 0.0 10122041
18:00+22з355989 0.0 1012320
21:00+19з116067 0.0 101311